Home   Weather   Galway   Past weeks

Flag for Ireland Past Weather in Galway, Ireland — Yesterday and Last 2 Weeks

55 °F

Drizzle. Broken clouds.

Feels Like: 53 °F
Forecast: 56 / 58 °F
Wind: 8 mph from Southwest

Location: Shannon Airport

Current Time: Oct 26, 2016 at 6:21:25 PM

Latest Report: Oct 26, 2016 at 6:00 PM

Visibility: N/A

Pressure: 30.33 "Hg

Humidity: 94%

Dew Point: 54 °F

Location of GalwayLocation

Past Weather in Galway — Graph


Galway Temperature Yesterday

Maximum temperature yesterday: 52 °F (at 4:00 PM)
Minimum temperature yesterday: 36 °F (at 7:00 AM)
Average temperature yesterday: 43 °F

High & Low Weather Summary for the Past Weeks

High59 °F (Oct 12, 1:30 PM)100% (Oct 12, 6:00 AM)30.36 "Hg (Oct 12, 6:00 AM)
Low36 °F (Oct 25, 7:00 AM)55% (Oct 15, 3:00 PM)29.30 "Hg (Oct 16, 7:30 AM)
Average49 °F86%29.98 "Hg
* Reported Oct 11 5:00 PM — Oct 26 5:00 PM, Galway, Weather by CustomWeather, © 2016

Note: Actual official high and low records may vary slightly from our data, if they occured in-between our weather recording intervals... More about our weather records


Galway Weather History for the Previous 24 Hours

Scroll right to see more
Time TempWeatherWind HumidityBarometerVisibility
5:00 PM
Wed, Oct 26
57 °FPartly sunny.8 mph94%30.33 "HgN/A
4:30 PM55 °FPartly sunny.8 mph100%30.30 "Hg6 mi
4:00 PM55 °FPartly sunny.9 mph100%30.30 "Hg6 mi
3:30 PM57 °FDrizzle. Broken clouds.9 mph94%30.30 "Hg2 mi
3:00 PM55 °FDrizzle. Partly sunny.9 mph100%30.30 "Hg2 mi
2:30 PM55 °FDrizzle. Partly sunny.10 mph94%30.30 "Hg2 mi
2:00 PM55 °FDrizzle. Partly sunny.14 mph94%30.30 "Hg4 mi
1:30 PM55 °FDrizzle. Broken clouds.14 mph94%30.30 "Hg2 mi
1:00 PM55 °FBroken clouds.13 mph94%30.30 "Hg5 mi
12:30 PM55 °FDrizzle. Broken clouds.9 mph94%30.30 "Hg4 mi
12:00 PM57 °FDrizzle. Broken clouds.12 mph82%30.30 "Hg2 mi
11:30 AM55 °FBroken clouds.10 mph88%30.27 "HgN/A
11:00 AM54 °FBroken clouds.8 mph88%30.27 "HgN/A
10:30 AM54 °FBroken clouds.8 mph88%30.27 "HgN/A
10:00 AM52 °FPartly sunny.7 mph94%30.27 "HgN/A
9:30 AM52 °FBroken clouds.6 mph88%30.27 "HgN/A
9:00 AM50 °FPartly sunny.7 mph94%30.24 "HgN/A
8:30 AM50 °FBroken clouds.6 mph94%30.24 "HgN/A
8:00 AM52 °FPartly cloudy.6 mph88%30.24 "HgN/A
7:30 AM52 °FPassing clouds.7 mph88%30.24 "HgN/A
7:00 AM52 °FPartly cloudy.10 mph88%30.24 "HgN/A
6:30 AM52 °FClear.8 mph88%30.21 "Hg10 mi
6:00 AM52 °FClear.8 mph88%30.21 "Hg10 mi
5:30 AM52 °FClear.7 mph88%30.21 "Hg10 mi
5:00 AM50 °FClear.5 mph94%30.18 "Hg10 mi
4:30 AM52 °FClear.5 mph88%30.21 "Hg10 mi
4:00 AM52 °FLight rain. Passing clouds.5 mph88%30.21 "HgN/A
3:30 AM50 °FClear.6 mph94%30.21 "Hg10 mi
3:00 AM50 °FClear.5 mph94%30.21 "Hg10 mi
2:30 AM50 °FClear.5 mph94%30.21 "Hg10 mi
2:00 AM50 °FClear.6 mph94%30.21 "Hg10 mi
1:30 AM50 °FPartly cloudy.5 mph94%30.21 "Hg5 mi
1:00 AM48 °FPartly cloudy.3 mph100%30.21 "Hg5 mi
12:30 AM48 °FLight rain. Passing clouds.No wind100%30.21 "Hg5 mi
12:00 AM48 °FPassing clouds.3 mph100%30.18 "Hg4 mi
11:30 PM
Tue, Oct 25
50 °FPassing clouds.6 mph94%30.18 "Hg4 mi
11:00 PM48 °FPartly cloudy.5 mph100%30.18 "Hg4 mi
10:30 PM48 °FPartly cloudy.6 mph100%30.18 "Hg4 mi
10:00 PM48 °FPassing clouds.3 mph100%30.18 "Hg6 mi
9:30 PM48 °FPassing clouds.No wind100%30.18 "HgN/A
9:00 PM48 °FPassing clouds.2 mph100%30.18 "HgN/A
8:30 PM48 °FPartly cloudy.No wind100%30.18 "HgN/A
8:00 PM50 °FPassing clouds.2 mph94%30.18 "HgN/A
7:30 PM50 °FPartly cloudy.3 mph94%30.15 "HgN/A
7:00 PM50 °FPartly cloudy.2 mph94%30.15 "HgN/A
6:30 PM50 °FPartly cloudy.3 mph94%30.15 "HgN/A
6:00 PM52 °FPartly sunny.5 mph88%30.15 "HgN/A
Weather by CustomWeather, © 2016

See weather overviewHow to use our weather pages